User: anonymous   Login
Location: Unspecified
(0.0000°N, 0.0000°E)
Time: 06:45:50
(UTC+00:00)
Language:

CUSAT 1 - Orbit

View from above orbital plane
View from above orbital plane
View from above satellite
View from above satellite

Ground track
Ground track

The orbit data is extracted from the following two-line orbital elements,

1 39266U 13055B   17087.96795993 +.00007859 +00000-0 +22025-3 0  9993
2 39266 080.9837 092.3111 0667924 103.9833 263.6506 14.28016600180545
Epoch (UTC): 28 March 2017 23:13:51
Eccentricity: 0.0667924
inclination: 80.9837°
perigee height: 319 km
apogee height: 1278 km
right ascension of ascending node: 92.3111°
argument of perigee: 103.9833°
revolutions per day: 14.28016600
mean anomaly at epoch: 263.6506°
orbit number at epoch: 18054

The dashed part of the orbit path shows where the satellite is in the earth's shadow,  

DLR